User: anonymous   Login
Location: Unspecified
(0.0000°N, 0.0000°E)
Time: 04:18:05
(UTC+00:00)
Language:

ISS - Orbit

View from above orbital plane
View from above orbital plane
View from above satellite
View from above satellite

Ground track
Ground track

The orbit data is extracted from the following two-line orbital elements,

1 25544U 98067A   16206.94730108  .00001272  00000-0  25789-4 0  9994
2 25544  51.6433 229.6300 0002168  77.3717 352.9189 15.54877791 10861
Epoch (UTC): 24 July 2016 22:44:06
Eccentricity: 0.0002168
inclination: 51.6433°
perigee height: 401 km
apogee height: 404 km
right ascension of ascending node: 229.6300°
argument of perigee: 77.3717°
revolutions per day: 15.54877791
mean anomaly at epoch: 352.9189°
orbit number at epoch: 1086

The dashed part of the orbit path shows where the satellite is in the earth's shadow,  

DLR